NASA DART (49497 NORAD) Tracking and Keplerian Element Data

This shows tracking and keplerian element data for the satellite.

Feedback or suggestion? Click here.




ElementValue
Catalog49497
NameNASA DART
Epoch Orbit0
Epoch Day328.27016493
Epoch Year2021
RAAN235.9449
Inclination64.77
Eccentricity0.00562
Argument of Perigee158.71
Mean Anonmoly355.4
Mean Motion16.00379554
Decay Rate-2.228E-05
L11 49497U 21110A 21328.27016493 -.00002228 70442-5 00000+0 0 9992
L22 49497 64.7700 235.9449 0056200 158.7100 355.4000 16.00379554 07

Live tracking and technical data element details for NASA DART (NORAD 49497). NASA DART can be tracked NOW for your location showing map with azimuth and elevation plus other details from your city location.

Track the satellite on the map from your city or location and see movement details for azimuth, elevation, latitude, longitude, range, height, and movement on the map or in text.







IsCatalogInMostPopularTable: catalog: 49497, numindb: 4
Update: records affected: 1



GetName: 49497 NASA DART

Hit Count: updated at: Wed, 08 Dec 2021 15:43:28 GMT